Location: Freiburg+im+Breisgau
(48.0359°N, 7.8195°E)
Time: 06:31:24
(UTC+01:00)

ISS - Pass Details

Date: 18 November 2017
Orbit: 402 x 407 km, 51.6° (Epoch: 23 November)

Event Time Altitude Azimuth Distance (km) Brightness Sun altitude
Exits shadow 05:31:11 14° 179° (S) 1,254 -1.3 -21.2°
Drops below altitude 10° 05:31:51 10° 170° (S) 1,448 -0.9 -21.1°
Sets 05:34:14 0° 153° (SSE) 2,303 0.5 -20.7°
